CZ-2D R/B

基本信息
目录编号:
39154
目录名称:
CZ-2D R/B
国际标识:
2013-018E
轨道中心:
EARTH
物体状态:
在轨
发射日期:
2013-04-26 UTC
国别:
中国 (CN)
轨道信息
数据来源: 国际轨道数据
星历时间: 2026-09-11T02:29:01+0800
半长轴: 7002.082km
偏心率: 0.0017909
轨道倾角: 98.443°
近地点辐角: 133.806°
升交点赤经: 231.172°
平近点角: 226.464°
近地点: 611.404km
远地点: 636.486km
周期: 97.185分钟
每日圈数: 14.81706
详细信息
发射场:
JSC
轨道高度:
LEO
数据来源:
AOE Integration Group
参考系:
TEME
时间系统:
UTC
历元类型:
SGP4
2D轨道图
3D轨道图
轨道高度分析图
轨道倾角分析图
轨道综合分析图
查看轨道综合分析图